カタログに戻る

CZ-6A DEB

運用中SSO
NORAD 54533·DEBRIS·🇨🇳 China

打ち上げ Nov 11, 2022 から Taiyuan Satellite Launch Center

Loading…

次のパス (今後24時間)

TLE

最新Source: Space-Track

元期: Sep 14, 2026, 10:22 UTC

1 54533U 22151KM  26257.43203650  .00000118  00000-0  94122-4 0  9998
2 54533  98.8689 249.1911 0068518 124.9002 235.8631 14.07096605196847

AllMySatでCZ-6A DEBをリアルタイム追跡

Download on the App Store